Roswell International Air Center Airport
KROW : now visible

Airfield :











YOU CAN JOIN US ON...

 
LOGIN :

Register | Disclaimer

   EN    FR    IT 

 









Legend :    VFR   Marginal VFR   IFR   Intensive IFR   Very Intensive IFR
Visi :
Ceiling :
>= 8 km
>= 3000ft
5 to 8 km
1000 to 3000 ft
1500m to 5 km
500 to 1000 ft
800 to 1500m
200 to 500 ft
< 800m
< 200 ft
Symbols :   Thunderstorms  Fog  Heavy snow  Heavy precipitations  Wind > 20 kt






- Airport Elevation : 3671 ft
- IATA code : ROW


KROW - Roswell International Air Center

CURRENT METAR :
  • 281351Z 23007KT 10SM CLR 21/07 A2996 RMK AO2 SLP085 T02110072

EXPIRED METARs :
  • 281251Z 24004KT 10SM CLR 18/07 A2995 RMK AO2 SLP083 T01780072
  • 281151Z 15003KT 10SM SCT110 16/08 A2995 RMK AO2 SLP081 60000 T01560083 10194 20139 55003

TAF KROW
Valid from the 28 at 12:00 until the 29 at 12:00 UTC


281124Z 2812/2912 VRB05KT P6SM BKN110
FM281700 20012KT P6SM SCT130
FM282100 23018G28KT P6SM BKN130
FM290100 25011KT P6SM SCT130
FM290600 23006KT P6SM FEW130
KZAB FIR / North America



MET'MAP, your aeronautical weather chart ! - Copyright ORBIFLY December 2007 - Disclaimer

ORBIFLY MET'MAP TEAM :

Programming & Development : Alexandra Zaïnal
Concept & original design : Baudouin d'Aumeries
Assistance for programming : Marc-Olivier Méhu
Technical & hardware support : Manuel Goepfert

Contact : metmap@orbifly.com




SOURCES & CREDITS :

   NOAA       Earth
Advisory